Showing default

HULIANWANG DIGUI-130, 67238

Orbit data source: Space-Track

HULIANWANG DIGUI-130, 67238 is a payload satellite owned by Zhongguo Xingwang (CN) in LEO that was launched on Thu, 25 Dec 2025 UTC via a CHANG ZHENG 8A launch vehicle from the Wenchang Satellite Launch Center (WSC). Payload-class satellites include a variety of spacecraft equipped with specific instruments for various scientific and technological missions. These include communications satellites like Starlink; space stations such as the ISS; scientific satellites like the Hubble; Earth observation satellites from companies like Planet Labs, Umbra, and HawkEye 360; GPS; miniature CubeSats for education and research; and military/defense satellites.

Loading next visibility...
Identifier
67238, 2025-311C
Orbit
LEO
Country
Flag of CNCN / PRC
Related business
Manufacturer
CAST
Mission
Operational Civil Communications
Bus & Motor
XINGWANG C, Unknown motor
Mass
~700 kg wet, ~700 kg dry
Launch date (UTC)
2025-12-25 (6 months ago)
Launch vehicle
CHANG ZHENG 8A
Launch site
Wenchang Satellite Launch Center (WSC)
Object type
Payload
Rocket body
Debris
Shape & HBR
Box + 2 Pan, 14.5 m
Radar Cross Section
5.935 m², Large (>1 m²)

Expand to show TLE details & history
Last TLE update: 21 hours ago

TLE from 21 hours ago
0 HULIANWANG DIGUI-130
1 67238U 25311C   26163.20825611 -.00000227  00000-0 -22092-3 0  9992
2 67238  50.0052 133.8663 0001110 312.9725  47.1054 13.29321667 22670
Epoch: 2026-06-12T04:59Z
TLE epoch observation values (Epoch: 2026-06-12T04:59:53.327Z)
Latitude
-0.00003°
Longitude
158.35308°
Altitude
1,149.261 km
Speed
7.28 km/s
True Right ascension
08h 55m 27s
True Declination
0° 00' 00"
Sunlit
Object was in daylight at epoch
Visualization orbit readout
Latitude
Unknown
Longitude
Unknown
Altitude
Unknown
Speed
Unknown
Apparent Right ascension
Unknown
Apparent Declination
Unknown
Sunlit
N/A
Visualization observer readout
Local Sidereal Time
12:46:02
Azimuth
Unknown
Elevation
Unknown
Doppler factor
Unknown
Orbital elements
Apogee altitude
1,150.863 km
Perigee altitude
1,149.192 km
Semi-major axis
7,528.165 km
Eccentricity
0.00011
Inclination
50.0052°
RAAN
133.8663°
Arg. of periapsis
312.9725°
True anomaly
47.11472°
Mean anomaly
47.1054°
Eccentric anomaly
47.11006°
Mean motion
3.32284 °/min
Orbital period
108.34 mins
BSTAR
-0.00022092
Loading maneuver chart data...
Computing Atmospheric mass density...
Loading historical data...
Loading historical data...
Loading historical data...
Loading historical data...
Loading historical data...
Loading historical data...
Loading historical data...

Documentation

Showing up to 5 results
|